IS0GQX-3 Weather Reports


Display with metric or nautical units.
time (UTC)temp
F
wind
direction
speed
MPH
gust
MPH
rain 1hr
in
rain 24hr
in
rain mn
in
humidity
%
barometer
mb
20260508063744 83 0.0 0.0 0.00 0.00 0.00 1013.6
20260508061745 80 0.0 0.0 0.00 0.00 0.00 1013.7
20260508055743 78 0.0 0.0 0.00 0.00 0.00 1013.6
20260508053743 74 0.0 0.0 0.00 0.00 0.00 1011.7
20260508051743 75 0.0 0.0 0.00 0.00 0.00 1013.1
20260508045742 74 0.0 0.0 0.00 0.00 0.00 1013.0
20260508043742 74 0.0 0.0 0.00 0.00 0.00 1012.9
20260508041742 71 0.0 0.0 0.00 0.00 0.00 1010.1
20260508035742 74 0.0 0.0 0.00 0.00 0.00 1012.7
20260508033741 74 0.0 0.0 0.00 0.00 0.00 1012.5
20260508031741 70 0.0 0.0 0.00 0.00 0.00 1010.0
20260508025740 74 0.0 0.0 0.00 0.00 0.00 1012.6
20260508023740 75 0.0 0.0 0.00 0.00 0.00 1012.5
20260508021740 75 0.0 0.0 0.00 0.00 0.00 1012.6
20260508015739 77 0.0 0.0 0.00 0.00 0.00 1012.6
20260508013739 78 0.0 0.0 0.00 0.00 0.00 1012.5
20260508011738 78 0.0 0.0 0.00 0.00 0.00 1012.5
20260508005737 78 0.0 0.0 0.00 0.00 0.00 1012.6
20260508003737 79 0.0 0.0 0.00 0.00 0.00 1012.5
20260508001737 79 0.0 0.0 0.00 0.00 0.00 1012.1
20260507235736 80 0.0 0.0 0.00 0.00 0.00 1012.0
20260507233736 81 0.0 0.0 0.00 0.00 0.00 1011.7
20260507231736 81 0.0 0.0 0.00 0.00 0.00 1011.9
20260507225735 81 0.0 0.0 0.00 0.00 0.00 1012.0
20260507223735 81 0.0 0.0 0.00 0.00 0.00 1012.2
20260507221735 82 0.0 0.0 0.00 0.00 0.00 1012.2
20260507215735 81 0.0 0.0 0.00 0.00 0.00 1012.2
20260507213735 80 0.0 0.0 0.00 0.00 0.00 1012.3
20260507211734 81 0.0 0.0 0.00 0.00 0.00 1012.4
20260507205734 81 0.0 0.0 0.00 0.00 0.00 1012.4
20260507203733 82 0.0 0.0 0.00 0.00 0.00 1012.4
20260507201732 82 0.0 0.0 0.00 0.00 0.00 1012.3
20260507195732 83 0.0 0.0 0.00 0.00 0.00 1012.5
20260507193732 82 0.0 0.0 0.00 0.00 0.00 1012.5
20260507191732 82 0.0 0.0 0.00 0.00 0.00 1012.6
20260507185731 82 0.0 0.0 0.00 0.00 2.80 1012.4
20260507183731 82 0.0 0.0 0.00 0.00 2.80 1012.5
20260507181731 84 0.0 0.0 0.00 0.00 2.80 1012.3
20260507175730 85 0.0 0.0 0.00 0.00 2.80 1011.8
20260507173730 84 0.0 0.0 0.00 0.00 2.80 1011.5
20260507171729 84 0.0 0.0 0.00 0.00 2.80 1011.5
20260507165729 85 0.0 0.0 0.00 0.00 2.80 1011.4
20260507163729 85 0.0 0.0 0.00 0.00 2.80 1011.7
20260507161728 70 0.0 0.0 0.00 0.00 2.80 1012.3
20260507154115 74 0.0 0.0 0.00 0.00 0.00 1012.9
20260507152115 73 0.0 0.0 0.00 0.00 2.80 1013.3
20260507150115 73 0.0 0.0 0.00 0.00 2.80 1013.3
20260507144114 73 0.0 0.0 0.00 0.00 2.80 1013.3
20260507142114 73 0.0 0.0 0.00 0.00 2.80 1013.3
20260507140114 73 0.0 0.0 0.00 0.00 2.80 1013.2
20260507134113 73 0.0 0.0 0.00 0.00 2.80 1013.6
20260507132113 72 0.0 0.0 0.00 0.00 2.80 1013.1
20260507130113 73 0.0 0.0 0.00 0.00 2.80 1013.7
20260507124112 75 0.0 0.0 0.00 0.00 2.80 1013.8
20260507123316 78 0.0 0.0 0.00 0.00 2.80 1013.1
20260507123015 78 0.0 0.0 0.00 0.00 2.80 1013.1
20260507121319 74 0.0 0.0 0.00 0.00 2.80 1013.8
20260507120246 73 0.0 0.0 0.00 0.00 2.80 1014.0
20260507115555 73 0.0 0.0 0.00 0.00 2.80 1014.1
20260507113555 73 0.0 0.0 0.00 0.00 2.80 1014.1
20260507111554 73 0.0 0.0 0.00 0.00 2.80 1014.2
20260507111139 73 0.0 0.0 0.00 0.00 2.80 1014.2
20260507110803 74 0.0 0.0 0.00 0.00 2.80 1014.3
20260507103655 79 0.0 0.0 0.00 0.00 2.80 1013.7
20260507102844 80 0.0 0.0 0.00 0.00 2.80 1014.4
20260507102505 75 0.0 0.0 0.00 0.00 2.80 1014.6
20260507102041 75 0.0 0.0 0.00 0.00 2.80 1014.6
20260507095124 85 0.0 0.0 0.00 0.00 2.80 1013.7
20260507095015 85 0.0 0.0 0.00 0.00 2.80 1013.6
20260507094921 85 0.0 0.0 0.00 0.00 2.80 1013.6
20260507094832 84 0.0 0.0 0.00 0.00 2.80 1013.6
20260507094619 84 0.0 0.0 0.00 0.00 2.80 1013.6
20260507081518 80 0.0 0.0 0.00 0.00 2.80 1013.7
20260507080714 84 0.0 0.0 0.00 0.00 2.80 1013.6
20260507080449 85 0.0 0.0 0.00 0.00 2.80 1013.5
20260507080341 85 0.0 0.0 0.00 0.00 2.80 1013.6
20260507080213 85 0.0 0.0 0.00 0.00 2.80 1013.6
20260507080124 85 0.0 0.0 0.00 0.00 2.80 1013.6
20260507080036 84 0.0 0.0 0.00 0.00 2.80 1013.6
20260507075946 84 0.0 0.0 0.00 0.00 2.80 1013.6
20260507075857 84 0.0 0.0 0.00 0.00 2.80 1013.6
20260507075749 84 0.0 0.0 0.00 0.00 2.80 1013.6
20260507075630 84 0.0 0.0 0.00 0.00 2.80 1013.6
20260507073630 81 0.0 0.0 0.00 0.00 2.80 1013.9
20260507073535 81 0.0 0.0 0.00 0.00 2.80 1013.9
20260507071534 79 0.0 0.0 0.00 0.00 2.80 1014.3
20260507065534 77 0.0 0.0 0.00 0.00 2.80 1014.2
20260507064814 77 0.0 0.0 0.00 0.00 0.00 1014.1